Falfurrias, TX

8:45 PM CST on December 15, 2019 (GMT -0600)
Falfurrias

Weather History for KBKS - October, 2019

Change the Weather History Date:

Thursday, October 17, 2019

  Actual Average (WUND) Record (WUND)
Temperature  
Mean Temperature 71 °F -  
Max Temperature 77 °F - - (-1)
Min Temperature 65 °F - - (-1)
Cooling Degree Days 6    
Growing Degree Days 21 (Base 50)    
Moisture  
Dew Point 54 °F    
Average Humidity 56    
Maximum Humidity 71    
Minimum Humidity 48    
Precipitation  
Precipitation 0.00 in - - ()
Sea Level Pressure  
Sea Level Pressure 29.97 in    
Wind  
Wind Speed 7 mph ()    
Max Wind Speed 13 mph    
Max Gust Speed 21 mph    
Visibility 10.0 miles    
Events      
Averages and records for this station are not official NWS values.
T = Trace of Precipitation, MM = Missing Value Source: Averaged Metar Reports

Daily Weather History Graph

Daily Weather History Graph

Search for Another Location

Airport or City:

Astronomy

Oct. 17, 2019 Rise Set
Actual Time 7:33 AM CDT 7:01 PM CDT
Civil Twilight 7:09 AM CDT 7:25 PM CDT
Nautical Twilight 6:42 AM CDT 7:52 PM CDT
Astronomical Twilight 6:15 AM CDT 8:19 PM CDT
Moon 9:51 PM CDT (10/17) 10:51 AM CDT (10/17)
Length of Visible Light 12h 15m
Length of Day
11h 28m
Waning Gibbous, 86% of the Moon is Illuminated
Oct 17
Waning Gibbous
Oct 21
Last Quarter
Oct 27
New
Nov 4
First Quarter
Nov 12
Full

Hourly Weather History & Observations

Time (CDT) Temp. Dew Point Humidity Pressure Visibility Wind Dir Wind Speed Gust Speed Precip Events Conditions
12:15 AM 66.0 °F 52.3 °F 61% 30.08 in 10.0 mi NNE 10.4 mph - N/A   Overcast
12:35 AM 65.7 °F 52.7 °F 63% 30.06 in 10.0 mi North 9.2 mph - N/A   Overcast
12:55 AM 65.5 °F 52.7 °F 63% 30.06 in 10.0 mi NNW 8.1 mph - N/A   Overcast
1:15 AM 65.7 °F 51.3 °F 60% 30.05 in 10.0 mi NNE 9.2 mph - N/A   Overcast
1:35 AM 65.3 °F 52.7 °F 64% 30.06 in 10.0 mi North 8.1 mph - N/A   Overcast
1:55 AM 65.5 °F 53.2 °F 65% 30.04 in 10.0 mi NNE 6.9 mph - N/A   Overcast
2:15 AM 65.7 °F 52.9 °F 63% 30.04 in 10.0 mi NNE 4.6 mph - N/A   Overcast
2:35 AM 66.2 °F 52.9 °F 62% 30.04 in 10.0 mi NNW 3.5 mph - N/A   Overcast
2:55 AM 67.1 °F 50.4 °F 55% 30.03 in 10.0 mi North 6.9 mph - N/A   Overcast
3:15 AM 67.1 °F 49.6 °F 53% 30.02 in 10.0 mi NNW 5.8 mph - N/A   Overcast
3:35 AM 67.1 °F 49.6 °F 53% 30.03 in 10.0 mi NNW 6.9 mph - N/A   Overcast
3:55 AM 67.1 °F 48.4 °F 51% 30.02 in 10.0 mi NNW 8.1 mph - N/A   Overcast
4:15 AM 67.1 °F 47.3 °F 49% 30.02 in 10.0 mi NW 9.2 mph - N/A   Overcast
4:35 AM 67.1 °F 47.3 °F 49% 30.00 in 10.0 mi NNW 5.8 mph - N/A   Overcast
4:55 AM 66.9 °F 47.1 °F 49% 30.00 in 10.0 mi NW 9.2 mph - N/A   Overcast
5:15 AM 66.6 °F 47.5 °F 50% 30.00 in 10.0 mi NNW 8.1 mph - N/A   Overcast
5:35 AM 66.7 °F 47.1 °F 49% 30.00 in 10.0 mi North 5.8 mph - N/A   Overcast
5:55 AM 66.7 °F 46.9 °F 49% 30.01 in 10.0 mi North 5.8 mph - N/A   Overcast
6:15 AM 66.6 °F 46.8 °F 49% 30.00 in 10.0 mi North 8.1 mph - N/A   Overcast
6:35 AM 66.6 °F 47.3 °F 50% 29.99 in 10.0 mi North 9.2 mph - N/A   Overcast
6:55 AM 66.4 °F 47.3 °F 50% 29.99 in 10.0 mi North 9.2 mph - N/A   Overcast
7:15 AM 66.4 °F 47.5 °F 51% 29.99 in 10.0 mi North 9.2 mph - N/A   Overcast
7:35 AM 66.4 °F 47.3 °F 50% 29.99 in 10.0 mi North 3.5 mph - N/A   Overcast
7:55 AM 66.6 °F 47.5 °F 50% 30.00 in 10.0 mi NNE 4.6 mph - N/A   Overcast
8:15 AM 66.6 °F 47.8 °F 51% 30.00 in 10.0 mi NNW 9.2 mph - N/A   Overcast
8:35 AM 67.1 °F 48.0 °F 50% 30.02 in 10.0 mi NNW 12.7 mph 20.7 mph N/A   Overcast
8:55 AM 67.1 °F 48.4 °F 51% 30.02 in 10.0 mi North 3.5 mph 18.4 mph N/A   Overcast
9:15 AM 67.6 °F 48.6 °F 50% 30.03 in 10.0 mi North 5.8 mph 16.1 mph N/A   Overcast
9:35 AM 67.8 °F 49.1 °F 51% 30.04 in 10.0 mi NNW 8.1 mph - N/A   Overcast
9:55 AM 68.0 °F 49.1 °F 51% 30.03 in 10.0 mi North 8.1 mph - N/A   Overcast
10:15 AM 69.6 °F 50.0 °F 50% 30.01 in 10.0 mi North 6.9 mph - N/A   Mostly Cloudy
10:35 AM 70.7 °F 51.3 °F 50% 30.01 in 10.0 mi NNE 6.9 mph - N/A   Mostly Cloudy
10:55 AM 71.4 °F 52.3 °F 51% 30.02 in 10.0 mi North 6.9 mph - N/A   Overcast
11:15 AM 71.8 °F 52.5 °F 51% 30.01 in 10.0 mi North 9.2 mph - N/A   Overcast
11:35 AM 72.5 °F 53.6 °F 51% 30.01 in 10.0 mi NNE 3.5 mph - N/A   Overcast
11:55 AM 73.0 °F 54.7 °F 52% 30.00 in 10.0 mi NE 6.9 mph - N/A   Overcast
12:15 PM 74.5 °F 54.3 °F 49% 30.00 in 10.0 mi NNW 5.8 mph - N/A   Overcast
12:35 PM 74.3 °F 54.0 °F 49% 29.99 in 10.0 mi NNW 8.1 mph - N/A   Overcast
12:55 PM 73.6 °F 53.2 °F 49% 29.98 in 10.0 mi North 8.1 mph - N/A   Overcast
1:15 PM 74.5 °F 54.3 °F 49% 29.96 in 10.0 mi North 8.1 mph - N/A   Overcast
1:35 PM 75.2 °F 54.3 °F 48% 29.95 in 10.0 mi North 6.9 mph - N/A   Overcast
1:55 PM 75.6 °F 54.5 °F 48% 29.94 in 10.0 mi North 8.1 mph - N/A   Overcast
2:15 PM 75.9 °F 55.2 °F 49% 29.93 in 10.0 mi North 8.1 mph - N/A   Overcast
2:35 PM 75.6 °F 55.6 °F 50% 29.93 in 10.0 mi North 6.9 mph - N/A   Overcast
2:55 PM 75.9 °F 56.3 °F 50% 29.93 in 10.0 mi NNE 6.9 mph - N/A   Overcast
3:15 PM 76.3 °F 56.5 °F 50% 29.92 in 10.0 mi North 9.2 mph - N/A   Overcast
3:35 PM 76.1 °F 57.2 °F 52% 29.92 in 10.0 mi North 6.9 mph - N/A   Overcast
3:55 PM 75.6 °F 56.7 °F 52% 29.91 in 10.0 mi North 6.9 mph - N/A   Overcast
4:15 PM 76.6 °F 56.8 °F 50% 29.90 in 10.0 mi NNW 12.7 mph 16.1 mph N/A   Overcast
4:35 PM 77.0 °F 57.0 °F 50% 29.90 in 10.0 mi NNW 9.2 mph - N/A   Overcast
4:55 PM 77.2 °F 57.4 °F 50% 29.89 in 10.0 mi Calm Calm - N/A   Overcast
5:15 PM 77.4 °F 58.5 °F 52% 29.89 in 10.0 mi NNE 5.8 mph - N/A   Overcast
5:35 PM 76.6 °F 58.6 °F 54% 29.88 in 10.0 mi NE 4.6 mph - N/A   Overcast
5:55 PM 76.1 °F 58.1 °F 54% 29.89 in 10.0 mi NE 9.2 mph - N/A   Overcast
6:15 PM 75.0 °F 59.2 °F 58% 29.89 in 10.0 mi NE 6.9 mph - N/A   Overcast
6:35 PM 74.7 °F 59.9 °F 60% 29.89 in 10.0 mi NNE 5.8 mph - N/A   Overcast
6:55 PM 74.3 °F 60.4 °F 62% 29.89 in 10.0 mi ENE 8.1 mph - N/A   Overcast
7:15 PM 73.6 °F 61.3 °F 65% 29.89 in 10.0 mi NNE 5.8 mph - N/A   Overcast
7:35 PM 73.0 °F 62.4 °F 69% 29.90 in 10.0 mi NE 6.9 mph - N/A   Overcast
7:55 PM 72.9 °F 62.1 °F 69% 29.90 in 10.0 mi NE 5.8 mph - N/A   Overcast
8:15 PM 72.7 °F 61.9 °F 69% 29.90 in 10.0 mi ENE 4.6 mph - N/A   Overcast
8:35 PM 72.5 °F 61.9 °F 69% 29.90 in 10.0 mi NE 4.6 mph - N/A   Overcast
8:55 PM 72.1 °F 61.9 °F 70% 29.90 in 10.0 mi NE 5.8 mph - N/A   Overcast
9:15 PM 72.0 °F 61.2 °F 69% 29.90 in 10.0 mi ENE 6.9 mph - N/A   Overcast
9:35 PM 71.8 °F 60.4 °F 67% 29.90 in 10.0 mi ENE 6.9 mph - N/A   Overcast
9:55 PM 71.6 °F 59.9 °F 66% 29.90 in 10.0 mi NE 5.8 mph - N/A   Overcast
10:15 PM 71.1 °F 59.9 °F 68% 29.91 in 10.0 mi NE 3.5 mph - N/A   Overcast
10:35 PM 70.7 °F 59.9 °F 69% 29.91 in 10.0 mi NE 3.5 mph - N/A   Mostly Cloudy
10:55 PM 70.2 °F 59.9 °F 70% 29.91 in 10.0 mi Calm Calm - N/A   Overcast
11:15 PM 70.0 °F 60.1 °F 71% 29.91 in 10.0 mi NE 5.8 mph - N/A   Overcast
11:35 PM 69.3 °F 58.8 °F 69% 29.90 in 10.0 mi NNE 3.5 mph - N/A   Scattered Clouds
11:55 PM 68.5 °F 57.9 °F 69% 29.90 in 10.0 mi Calm Calm - N/A   Scattered Clouds